sat.trackr.live / text

‹ back to catalog

STARLINK-36524

NORAD 67452 · 2026-008H

PAYLOAD ACTIVE UNKNOWN

§ Identity

Operator
Country
US
Launch date
2026-01-14
Launch site
AFETR
Launch vehicle
Mass (kg)
RCS (m²)

Purposes: comms

External: N2YO · Heavens-Above · Gunter

§ Orbital elements

Epoch: 2026-09-19T05:02:23.748576Z

Period
94.27 min
Inclination
43.0021°
Eccentricity
0.0001377
Mean motion
15.27580280 rev/d
Perigee alt
482.1 km
Apogee alt
484.0 km
Semi-major
6,861.2 km
B*
2.2977e-4
RAAN
192.7618°
Arg perigee
274.3989°
Mean anomaly
85.6705°
Rev number
3,916

§ Raw data

STARLINK-365241 67452U 26008H   26262.20999709  .00006066  00000+0  22977-3 0  99902 67452  43.0021 192.7618 0001377 274.3989  85.6705 15.27580280 39168

JSON: /api/v1/satellites/67452 · /tle

For live sub-satellite position, see the globe view (requires WebGL).

§ Visibility from observer

Set your observer location to see the next 7 days of passes ≥ 10°. The values pass through the URL so the page stays shareable.

No JS? Fill the form by hand. The geolocation button needs JavaScript.